| time (UTC) | temp C | wind direction | speed KPH | gust KPH | rain 1hr cm | rain 24hr cm | rain mn cm | humidity % | barometer mb |
| 20260505171621 | 27 | 121 | 4.8 | 11.3 | 0.00 | 0.00 | 0.00 | 80 | 1012.9 |
| 20260505171118 | 26 | 115 | 1.6 | 11.3 | 0.00 | 0.00 | 0.00 | 81 | 1012.9 |
| 20260505170615 | 26 | 344 | 1.6 | 3.2 | 0.00 | 0.00 | 0.00 | 81 | 1013.1 |
| 20260505170111 | 26 | 271 | 3.2 | 14.5 | 0.00 | 0.00 | 0.00 | 81 | 1013.0 |
| 20260505165606 | 26 | 189 | 0.0 | 3.2 | 0.00 | 0.00 | 0.00 | 82 | 1013.3 |
| 20260505165103 | 26 | 147 | 1.6 | 12.9 | 0.00 | 0.00 | 0.00 | 82 | 1013.1 |
| 20260505164558 | 26 | 4 | 1.6 | 3.2 | 0.00 | 0.00 | 0.00 | 83 | 1013.2 |
| 20260505164056 | 26 | 191 | 9.7 | 12.9 | 0.00 | 0.00 | 0.00 | 83 | 1013.1 |
| 20260505163555 | 26 | 270 | 3.2 | 9.7 | 0.00 | 0.00 | 0.00 | 83 | 1013.0 |
| 20260505163051 | 25 | 306 | 1.6 | 12.9 | 0.00 | 0.00 | 0.00 | 84 | 1013.1 |
| 20260505162549 | 25 | 187 | 9.7 | 11.3 | 0.00 | 0.00 | 0.00 | 83 | 1013.2 |
| 20260505162047 | 25 | 163 | 3.2 | 8.0 | 0.00 | 0.00 | 0.00 | 83 | 1012.7 |
| 20260505161544 | 26 | 125 | 3.2 | 8.0 | 0.00 | 0.00 | 0.00 | 83 | 1012.8 |
| 20260505161041 | 26 | 246 | 3.2 | 9.7 | 0.00 | 0.00 | 0.00 | 82 | 1013.0 |
| 20260505160539 | 26 | 342 | 3.2 | 11.3 | 0.00 | 0.00 | 0.00 | 83 | 1013.0 |
| 20260505153015 | 25 | 141 | 1.6 | 11.3 | 0.00 | 0.00 | 0.00 | 84 | 1012.8 |
| 20260505152512 | 25 | 137 | 1.6 | 4.8 | 0.00 | 0.00 | 0.00 | 84 | 1012.9 |
| 20260505152008 | 25 | 186 | 1.6 | 9.7 | 0.00 | 0.00 | 0.00 | 84 | 1012.7 |
| 20260505151503 | 25 | 238 | 1.6 | 1.6 | 0.00 | 0.00 | 0.00 | 84 | 1012.8 |
| 20260505151000 | 25 | 169 | 3.2 | 4.8 | 0.00 | 0.00 | 0.00 | 84 | 1012.8 |
| 20260505150457 | 25 | 287 | 1.6 | 9.7 | 0.00 | 0.00 | 0.00 | 84 | 1012.9 |
| 20260505140427 | 24 | 303 | 3.2 | 3.2 | 0.00 | 0.00 | 0.00 | 85 | 1012.3 |
| 20260505124841 | 23 | 186 | 0.0 | 1.6 | 0.00 | 0.00 | 0.00 | 88 | 1011.8 |
| 20260505124337 | 22 | 241 | 0.0 | 4.8 | 0.00 | 0.00 | 0.00 | 89 | 1012.2 |
| 20260505123833 | 22 | 286 | 0.0 | 3.2 | 0.00 | 0.00 | 0.00 | 89 | 1012.2 |
| 20260505123330 | 22 | 185 | 1.6 | 1.6 | 0.00 | 0.00 | 0.00 | 89 | 1012.3 |
| 20260505122826 | 22 | 182 | 1.6 | 3.2 | 0.00 | 0.00 | 0.00 | 89 | 1012.3 |
| 20260505122324 | 22 | 157 | 0.0 | 3.2 | 0.00 | 0.00 | 0.00 | 89 | 1012.3 |
| 20260505121820 | 22 | 290 | 0.0 | 3.2 | 0.00 | 0.00 | 0.00 | 90 | 1012.4 |
| 20260505121318 | 22 | 162 | 1.6 | 1.6 | 0.00 | 0.00 | 0.00 | 90 | 1012.3 |
| 20260505120813 | 22 | 157 | 0.0 | 3.2 | 0.00 | 0.00 | 0.00 | 90 | 1012.1 |
| 20260505120309 | 22 | 290 | 1.6 | 4.8 | 0.00 | 0.00 | 0.00 | 90 | 1012.1 |
| 20260505115808 | 22 | 191 | 1.6 | 3.2 | 0.00 | 0.00 | 0.00 | 90 | 1012.0 |
| 20260505115306 | 22 | 235 | 1.6 | 3.2 | 0.00 | 0.00 | 0.00 | 90 | 1011.6 |
| 20260505114803 | 22 | 204 | 1.6 | 3.2 | 0.00 | 0.00 | 0.00 | 90 | 1011.8 |
| 20260505114300 | 22 | 180 | 1.6 | 4.8 | 0.00 | 0.00 | 0.00 | 89 | 1011.9 |
| 20260505113756 | 22 | 290 | 0.0 | 3.2 | 0.00 | 0.00 | 0.00 | 89 | 1012.1 |
| 20260505113253 | 22 | 298 | 0.0 | 8.0 | 0.00 | 0.00 | 0.00 | 89 | 1012.1 |
| 20260505112748 | 22 | 178 | 0.0 | 1.6 | 0.00 | 0.00 | 0.00 | 89 | 1012.1 |
| 20260505112246 | 22 | 303 | 0.0 | 3.2 | 0.00 | 0.00 | 0.00 | 89 | 1011.8 |
| 20260505111741 | 22 | 229 | 0.0 | 1.6 | 0.00 | 0.00 | 0.00 | 89 | 1012.0 |
| 20260505111237 | 22 | 143 | 1.6 | 1.6 | 0.00 | 0.00 | 0.00 | 89 | 1011.8 |
| 20260505110733 | 22 | 180 | 1.6 | 3.2 | 0.00 | 0.00 | 0.00 | 89 | 1011.9 |
| 20260505110231 | 22 | 188 | 1.6 | 3.2 | 0.00 | 0.00 | 0.00 | 89 | 1011.6 |
| 20260505102207 | 22 | 309 | 0.0 | 4.8 | 0.00 | 0.00 | 0.00 | 89 | 1011.9 |
| 20260505101705 | 21 | 230 | 0.0 | 1.6 | 0.00 | 0.00 | 0.00 | 89 | 1011.9 |
| 20260505101201 | 21 | 212 | 0.0 | 1.6 | 0.00 | 0.00 | 0.00 | 89 | 1012.0 |
| 20260505100657 | 21 | 212 | 3.2 | 3.2 | 0.00 | 0.00 | 0.00 | 89 | 1011.9 |
| 20260505100154 | 21 | 226 | 1.6 | 1.6 | 0.00 | 0.00 | 0.00 | 89 | 1012.1 |
| 20260505095650 | 21 | 153 | 0.0 | 1.6 | 0.00 | 0.00 | 0.00 | 89 | 1012.0 |
| 20260505095148 | 21 | 251 | 1.6 | 1.6 | 0.00 | 0.00 | 0.00 | 89 | 1012.2 |
| 20260505094643 | 22 | 146 | 1.6 | 1.6 | 0.00 | 0.00 | 0.00 | 89 | 1012.2 |
| 20260505094140 | 22 | 231 | 3.2 | 3.2 | 0.00 | 0.00 | 0.00 | 89 | 1012.0 |
| 20260505093636 | 22 | 213 | 1.6 | 3.2 | 0.00 | 0.00 | 0.00 | 88 | 1012.0 |
| 20260505093134 | 22 | 201 | 1.6 | 3.2 | 0.00 | 0.00 | 0.00 | 88 | 1012.1 |
| 20260505092630 | 22 | 270 | 1.6 | 3.2 | 0.00 | 0.00 | 0.00 | 88 | 1012.2 |
| 20260505092129 | 21 | 273 | 0.0 | 3.2 | 0.00 | 0.00 | 0.00 | 88 | 1012.5 |
| 20260505091625 | 21 | 286 | 0.0 | 1.6 | 0.00 | 0.00 | 0.00 | 89 | 1012.4 |
| 20260505091124 | 21 | 270 | 1.6 | 3.2 | 0.00 | 0.00 | 0.00 | 89 | 1012.2 |
| 20260505090621 | 21 | 228 | 0.0 | 1.6 | 0.00 | 0.00 | 0.00 | 89 | 1011.9 |
| 20260505090119 | 21 | 193 | 0.0 | 3.2 | 0.00 | 0.00 | 0.00 | 89 | 1012.3 |
| 20260505085616 | 21 | 193 | 1.6 | 3.2 | 0.00 | 0.00 | 0.00 | 89 | 1012.1 |
| 20260505085115 | 21 | 204 | 1.6 | 1.6 | 0.00 | 0.00 | 0.00 | 89 | 1012.4 |
| 20260505084612 | 21 | 243 | 0.0 | 1.6 | 0.00 | 0.00 | 0.00 | 89 | 1012.3 |
| 20260505084110 | 21 | 184 | 1.6 | 1.6 | 0.00 | 0.00 | 0.00 | 89 | 1012.3 |
| 20260505083608 | 21 | 280 | 1.6 | 3.2 | 0.00 | 0.00 | 0.00 | 88 | 1012.3 |
| 20260505083104 | 21 | 184 | 0.0 | 1.6 | 0.00 | 0.00 | 0.00 | 88 | 1012.4 |
| 20260505082559 | 21 | 170 | 1.6 | 3.2 | 0.00 | 0.00 | 0.00 | 88 | 1012.6 |
| 20260505082057 | 21 | 283 | 0.0 | 1.6 | 0.00 | 0.00 | 0.00 | 88 | 1012.6 |
| 20260505081553 | 21 | 303 | 1.6 | 3.2 | 0.00 | 0.00 | 0.00 | 87 | 1012.7 |
| 20260505081050 | 21 | 250 | 0.0 | 1.6 | 0.00 | 0.00 | 0.00 | 87 | 1012.7 |
| 20260505080546 | 21 | 177 | 1.6 | 3.2 | 0.00 | 0.00 | 0.00 | 87 | 1012.8 |
| 20260505080043 | 21 | 299 | 1.6 | 3.2 | 0.00 | 0.00 | 0.00 | 87 | 1012.7 |
| 20260505075539 | 21 | 163 | 3.2 | 3.2 | 0.00 | 0.00 | 0.00 | 87 | 1012.7 |
| 20260505075036 | 21 | 184 | 0.0 | 3.2 | 0.00 | 0.00 | 0.00 | 87 | 1012.5 |
| 20260505074533 | 21 | 281 | 1.6 | 3.2 | 0.00 | 0.00 | 0.00 | 87 | 1012.9 |
| 20260505074030 | 21 | 183 | 0.0 | 8.0 | 0.00 | 0.00 | 0.00 | 87 | 1013.0 |
| 20260505073527 | 21 | 356 | 1.6 | 4.8 | 0.00 | 0.00 | 0.00 | 86 | 1012.9 |
| 20260505073026 | 21 | 328 | 0.0 | 3.2 | 0.00 | 0.00 | 0.00 | 86 | 1013.1 |
| 20260505072521 | 21 | 293 | 1.6 | 3.2 | 0.00 | 0.00 | 0.00 | 86 | 1012.9 |
| 20260505072018 | 21 | 258 | 1.6 | 3.2 | 0.00 | 0.00 | 0.00 | 86 | 1012.8 |
| 20260505071513 | 21 | 294 | 1.6 | 4.8 | 0.00 | 0.00 | 0.00 | 86 | 1013.1 |
| 20260505071012 | 21 | 132 | 3.2 | 4.8 | 0.00 | 0.00 | 0.00 | 86 | 1013.1 |
| 20260505070509 | 21 | 129 | 1.6 | 3.2 | 0.00 | 0.00 | 0.00 | 85 | 1013.1 |
| 20260505070005 | 21 | 169 | 0.0 | 4.8 | 0.00 | 0.00 | 0.00 | 85 | 1013.2 |
| 20260505065501 | 21 | 322 | 1.6 | 1.6 | 0.00 | 0.00 | 0.00 | 85 | 1013.2 |
| 20260505064957 | 21 | 114 | 1.6 | 1.6 | 0.00 | 0.00 | 0.00 | 85 | 1013.1 |
| 20260505064454 | 22 | 215 | 0.0 | 1.6 | 0.00 | 0.00 | 0.00 | 85 | 1013.3 |
| 20260505063953 | 22 | 319 | 3.2 | 9.7 | 0.00 | 0.00 | 0.00 | 85 | 1013.3 |
| 20260505063449 | 22 | 162 | 4.8 | 8.0 | 0.00 | 0.00 | 0.00 | 85 | 1013.4 |
| 20260505062945 | 21 | 302 | 3.2 | 12.9 | 0.00 | 0.00 | 0.00 | 84 | 1013.5 |
| 20260505062442 | 22 | 291 | 1.6 | 3.2 | 0.00 | 0.00 | 0.00 | 84 | 1013.6 |
| 20260505061939 | 22 | 133 | 6.4 | 9.7 | 0.00 | 0.00 | 0.00 | 84 | 1013.6 |
| 20260505061437 | 22 | 203 | 1.6 | 4.8 | 0.00 | 0.00 | 0.00 | 84 | 1013.7 |
| 20260505060935 | 21 | 206 | 4.8 | 9.7 | 0.00 | 0.00 | 0.00 | 84 | 1013.7 |
| 20260505060432 | 21 | 243 | 1.6 | 4.8 | 0.00 | 0.00 | 0.00 | 84 | 1013.8 |
| 20260505055927 | 21 | 294 | 0.0 | 1.6 | 0.00 | 0.00 | 0.00 | 84 | 1013.6 |
| 20260505055424 | 21 | 298 | 1.6 | 4.8 | 0.00 | 0.00 | 0.00 | 84 | 1013.8 |
| 20260505054921 | 22 | 196 | 1.6 | 4.8 | 0.00 | 0.00 | 0.00 | 84 | 1013.8 |
| 20260505054418 | 22 | 86 | 0.0 | 3.2 | 0.00 | 0.00 | 0.00 | 84 | 1013.7 |
| 20260505053916 | 21 | 189 | 3.2 | 3.2 | 0.00 | 0.00 | 0.00 | 84 | 1013.8 |
| 20260505053413 | 21 | 286 | 1.6 | 4.8 | 0.00 | 0.00 | 0.00 | 83 | 1013.7 |
| 20260505052910 | 22 | 182 | 1.6 | 3.2 | 0.00 | 0.00 | 0.00 | 83 | 1013.6 |
| 20260505052406 | 22 | 248 | 1.6 | 4.8 | 0.00 | 0.00 | 0.00 | 83 | 1014.2 |
| 20260505051904 | 22 | 226 | 0.0 | 3.2 | 0.00 | 0.00 | 0.00 | 83 | 1014.0 |
| 20260505051401 | 22 | 167 | 1.6 | 4.8 | 0.00 | 0.00 | 0.00 | 83 | 1014.2 |
| 20260505050859 | 22 | 286 | 0.0 | 3.2 | 0.00 | 0.00 | 0.00 | 83 | 1014.2 |
| 20260505050357 | 22 | 191 | 1.6 | 1.6 | 0.00 | 0.00 | 0.00 | 82 | 1014.2 |
| 20260505041325 | 22 | 302 | 3.2 | 8.0 | 0.00 | 0.00 | 0.00 | 80 | 1014.1 |
| 20260505040821 | 22 | 148 | 3.2 | 3.2 | 0.00 | 0.00 | 0.00 | 80 | 1014.2 |
| 20260505040319 | 22 | 133 | 1.6 | 4.8 | 0.00 | 0.00 | 0.00 | 80 | 1014.2 |
| 20260505035816 | 22 | 167 | 1.6 | 4.8 | 0.00 | 0.00 | 0.00 | 80 | 1014.5 |
| 20260505035311 | 22 | 197 | 1.6 | 3.2 | 0.00 | 0.00 | 0.00 | 79 | 1014.2 |
| 20260505034809 | 22 | 324 | 0.0 | 3.2 | 0.00 | 0.00 | 0.00 | 79 | 1014.3 |
| 20260505034305 | 22 | 272 | 3.2 | 11.3 | 0.00 | 0.00 | 0.00 | 79 | 1014.3 |
| 20260505033803 | 23 | 191 | 3.2 | 8.0 | 0.00 | 0.00 | 0.00 | 79 | 1014.5 |
| 20260505033300 | 23 | 249 | 3.2 | 4.8 | 0.00 | 0.00 | 0.00 | 79 | 1014.6 |
| 20260505032758 | 23 | 158 | 3.2 | 8.0 | 0.00 | 0.00 | 0.00 | 78 | 1014.6 |
| 20260505032253 | 23 | 230 | 3.2 | 9.7 | 0.00 | 0.00 | 0.00 | 78 | 1014.5 |
| 20260505031751 | 23 | 37 | 3.2 | 4.8 | 0.00 | 0.00 | 0.00 | 79 | 1014.6 |
| 20260505031247 | 23 | 304 | 1.6 | 3.2 | 0.00 | 0.00 | 0.00 | 79 | 1014.3 |
| 20260505030744 | 23 | 273 | 4.8 | 8.0 | 0.00 | 0.00 | 0.00 | 78 | 1014.4 |
| 20260505030240 | 23 | 287 | 1.6 | 4.8 | 0.00 | 0.00 | 0.00 | 79 | 1014.3 |
| 20260505025736 | 23 | 9 | 3.2 | 4.8 | 0.00 | 0.00 | 0.00 | 78 | 1014.3 |
| 20260505025234 | 23 | 213 | 1.6 | 3.2 | 0.00 | 0.00 | 0.00 | 78 | 1014.4 |
| 20260505024732 | 23 | 147 | 1.6 | 8.0 | 0.00 | 0.00 | 0.00 | 78 | 1014.3 |
| 20260505024229 | 23 | 244 | 1.6 | 4.8 | 0.00 | 0.00 | 0.00 | 78 | 1014.1 |
| 20260505023726 | 23 | 136 | 1.6 | 1.6 | 0.00 | 0.00 | 0.00 | 78 | 1014.3 |
| 20260505023224 | 23 | 267 | 1.6 | 8.0 | 0.00 | 0.00 | 0.00 | 78 | 1014.3 |
| 20260505022721 | 23 | 318 | 0.0 | 9.7 | 0.00 | 0.00 | 0.00 | 77 | 1014.3 |
| 20260505022218 | 23 | 314 | 1.6 | 8.0 | 0.00 | 0.00 | 0.00 | 77 | 1014.1 |
| 20260505021714 | 23 | 214 | 4.8 | 9.7 | 0.00 | 0.00 | 0.00 | 77 | 1014.2 |
| 20260505021212 | 23 | 328 | 4.8 | 8.0 | 0.00 | 0.00 | 0.00 | 76 | 1014.1 |
| 20260505020707 | 23 | 135 | 3.2 | 4.8 | 0.00 | 0.00 | 0.00 | 76 | 1014.2 |
| 20260505020203 | 23 | 157 | 1.6 | 4.8 | 0.00 | 0.00 | 0.00 | 76 | 1014.2 |
| 20260505015700 | 23 | 190 | 3.2 | 8.0 | 0.00 | 0.00 | 0.00 | 75 | 1014.1 |
| 20260505015157 | 23 | 304 | 1.6 | 4.8 | 0.00 | 0.00 | 0.00 | 75 | 1014.1 |
| 20260505014654 | 23 | 51 | 4.8 | 8.0 | 0.00 | 0.00 | 0.00 | 75 | 1013.9 |
| 20260505014151 | 23 | 99 | 3.2 | 4.8 | 0.00 | 0.00 | 0.00 | 75 | 1013.7 |
| 20260505013648 | 23 | 178 | 4.8 | 9.7 | 0.00 | 0.00 | 0.00 | 74 | 1013.7 |
| 20260505013145 | 24 | 279 | 1.6 | 8.0 | 0.00 | 0.00 | 0.00 | 74 | 1013.6 |
| 20260505012643 | 24 | 221 | 1.6 | 4.8 | 0.00 | 0.00 | 0.00 | 74 | 1013.8 |
| 20260505012140 | 24 | 233 | 1.6 | 4.8 | 0.00 | 0.00 | 0.00 | 74 | 1013.7 |
| 20260505011636 | 24 | 141 | 3.2 | 3.2 | 0.00 | 0.00 | 0.00 | 74 | 1013.7 |
| 20260505011134 | 24 | 119 | 3.2 | 4.8 | 0.00 | 0.00 | 0.00 | 73 | 1014.0 |
| 20260505010634 | 24 | 219 | 1.6 | 3.2 | 0.00 | 0.00 | 0.00 | 73 | 1013.8 |
| 20260505010131 | 24 | 321 | 1.6 | 3.2 | 0.00 | 0.00 | 0.00 | 73 | 1013.7 |
| 20260505005627 | 24 | 241 | 1.6 | 3.2 | 0.00 | 0.00 | 0.00 | 73 | 1013.6 |
| 20260505005124 | 24 | 6 | 0.0 | 1.6 | 0.00 | 0.00 | 0.00 | 73 | 1013.8 |
| 20260505004621 | 24 | 326 | 0.0 | 4.8 | 0.00 | 0.00 | 0.00 | 72 | 1013.5 |
| 20260505004118 | 25 | 176 | 6.4 | 11.3 | 0.00 | 0.00 | 0.00 | 72 | 1013.7 |
| 20260505003615 | 25 | 255 | 1.6 | 3.2 | 0.00 | 0.00 | 0.00 | 72 | 1013.5 |
| 20260505003113 | 25 | 142 | 1.6 | 3.2 | 0.00 | 0.00 | 0.00 | 71 | 1013.5 |
| 20260505002608 | 25 | 124 | 3.2 | 4.8 | 0.00 | 0.00 | 0.00 | 71 | 1013.3 |
| 20260505002107 | 25 | 105 | 3.2 | 4.8 | 0.00 | 0.00 | 0.00 | 70 | 1013.5 |
| 20260505001604 | 25 | 178 | 1.6 | 3.2 | 0.00 | 0.00 | 0.00 | 70 | 1013.7 |
| 20260505001101 | 25 | 148 | 3.2 | 3.2 | 0.00 | 0.00 | 0.00 | 69 | 1013.5 |
| 20260505000558 | 25 | 181 | 3.2 | 8.0 | 0.00 | 0.00 | 0.00 | 69 | 1013.7 |
| 20260505000056 | 25 | 58 | 1.6 | 3.2 | 0.00 | 0.00 | 0.00 | 69 | 1013.6 |
| 20260504235552 | 25 | 268 | 0.0 | 8.0 | 0.00 | 0.00 | 0.00 | 69 | 1013.5 |
| 20260504235049 | 25 | 207 | 3.2 | 9.7 | 0.00 | 0.00 | 0.00 | 69 | 1013.7 |
| 20260504234546 | 25 | 286 | 4.8 | 8.0 | 0.00 | 0.00 | 0.00 | 68 | 1013.7 |
| 20260504234043 | 25 | 224 | 3.2 | 4.8 | 0.00 | 0.00 | 0.00 | 67 | 1013.8 |
| 20260504233538 | 26 | 179 | 4.8 | 12.9 | 0.00 | 0.00 | 0.00 | 67 | 1014.1 |
| 20260504233035 | 26 | 164 | 4.8 | 8.0 | 0.00 | 0.00 | 0.00 | 67 | 1013.9 |
| 20260504232532 | 26 | 315 | 0.0 | 3.2 | 0.00 | 0.00 | 0.00 | 67 | 1013.9 |
| 20260504232030 | 26 | 176 | 1.6 | 4.8 | 0.00 | 0.00 | 0.00 | 66 | 1013.9 |
| 20260504231526 | 26 | 329 | 1.6 | 3.2 | 0.00 | 0.00 | 0.00 | 66 | 1014.2 |
| 20260504231022 | 26 | 201 | 6.4 | 8.0 | 0.00 | 0.00 | 0.00 | 65 | 1013.9 |
| 20260504230519 | 26 | 149 | 3.2 | 11.3 | 0.00 | 0.00 | 0.00 | 65 | 1014.1 |
| 20260504230018 | 26 | 148 | 3.2 | 8.0 | 0.00 | 0.00 | 0.00 | 64 | 1014.1 |
| 20260504225515 | 26 | 253 | 1.6 | 8.0 | 0.00 | 0.00 | 0.00 | 64 | 1014.1 |
| 20260504225012 | 26 | 174 | 4.8 | 8.0 | 0.00 | 0.00 | 0.00 | 64 | 1014.0 |
| 20260504224508 | 26 | 190 | 1.6 | 8.0 | 0.00 | 0.00 | 0.00 | 63 | 1014.1 |
| 20260504224005 | 26 | 57 | 4.8 | 9.7 | 0.00 | 0.00 | 0.00 | 63 | 1014.3 |
| 20260504223502 | 26 | 230 | 1.6 | 8.0 | 0.00 | 0.00 | 0.00 | 63 | 1014.3 |
| 20260504222957 | 26 | 3 | 1.6 | 4.8 | 0.00 | 0.00 | 0.00 | 63 | 1014.4 |
| 20260504222455 | 26 | 273 | 1.6 | 8.0 | 0.00 | 0.00 | 0.00 | 63 | 1014.3 |
| 20260504221952 | 26 | 150 | 3.2 | 12.9 | 0.00 | 0.00 | 0.00 | 62 | 1014.5 |
| 20260504221449 | 27 | 295 | 1.6 | 12.9 | 0.00 | 0.00 | 0.00 | 61 | 1014.6 |
| 20260504220946 | 27 | 190 | 3.2 | 8.0 | 0.00 | 0.00 | 0.00 | 61 | 1014.4 |
| 20260504220443 | 27 | 248 | 4.8 | 8.0 | 0.00 | 0.00 | 0.00 | 61 | 1014.7 |
| 20260504215940 | 27 | 224 | 4.8 | 9.7 | 0.00 | 0.00 | 0.00 | 61 | 1014.6 |
| 20260504215436 | 27 | 330 | 1.6 | 8.0 | 0.00 | 0.00 | 0.00 | 60 | 1014.7 |
| 20260504214933 | 27 | 145 | 3.2 | 3.2 | 0.00 | 0.00 | 0.00 | 58 | 1014.7 |
| 20260504214429 | 27 | 13 | 1.6 | 4.8 | 0.00 | 0.00 | 0.00 | 59 | 1014.8 |
| 20260504213926 | 28 | 343 | 3.2 | 4.8 | 0.00 | 0.00 | 0.00 | 58 | 1014.8 |
| 20260504213422 | 27 | 284 | 1.6 | 4.8 | 0.00 | 0.00 | 0.00 | 58 | 1014.7 |
| 20260504212920 | 27 | 85 | 1.6 | 3.2 | 0.00 | 0.00 | 0.00 | 58 | 1014.9 |
| 20260504212415 | 27 | 148 | 1.6 | 4.8 | 0.00 | 0.00 | 0.00 | 58 | 1014.9 |
| 20260504211914 | 28 | 154 | 3.2 | 3.2 | 0.00 | 0.00 | 0.00 | 58 | 1014.9 |
| 20260504211409 | 28 | 28 | 0.0 | 4.8 | 0.00 | 0.00 | 0.00 | 57 | 1015.1 |
| 20260504210907 | 28 | 275 | 1.6 | 4.8 | 0.00 | 0.00 | 0.00 | 56 | 1015.2 |
| 20260504210404 | 29 | 221 | 1.6 | 8.0 | 0.00 | 0.00 | 0.00 | 55 | 1015.2 |
| 20260504205901 | 29 | 194 | 6.4 | 9.7 | 0.00 | 0.00 | 0.00 | 54 | 1015.3 |
| 20260504205359 | 28 | 299 | 1.6 | 3.2 | 0.00 | 0.00 | 0.00 | 55 | 1015.1 |
| 20260504204857 | 28 | 304 | 0.0 | 1.6 | 0.00 | 0.00 | 0.00 | 56 | 1015.3 |
| 20260504204355 | 28 | 260 | 0.0 | 3.2 | 0.00 | 0.00 | 0.00 | 55 | 1015.6 |
| 20260504203854 | 28 | 314 | 1.6 | 4.8 | 0.00 | 0.00 | 0.00 | 54 | 1015.7 |
| 20260504203350 | 28 | 253 | 0.0 | 9.7 | 0.00 | 0.00 | 0.00 | 55 | 1015.6 |
| 20260504202846 | 28 | 193 | 1.6 | 9.7 | 0.00 | 0.00 | 0.00 | 56 | 1015.5 |
| 20260504202344 | 28 | 289 | 1.6 | 3.2 | 0.00 | 0.00 | 0.00 | 55 | 1015.7 |
| 20260504201840 | 28 | 250 | 1.6 | 4.8 | 0.00 | 0.00 | 0.00 | 57 | 1015.8 |
| 20260504201337 | 28 | 76 | 3.2 | 4.8 | 0.00 | 0.00 | 0.00 | 57 | 1016.0 |
| 20260504200835 | 28 | 319 | 0.0 | 3.2 | 0.00 | 0.00 | 0.00 | 57 | 1016.3 |
| 20260504200331 | 28 | 286 | 1.6 | 3.2 | 0.00 | 0.00 | 0.00 | 55 | 1016.3 |
| 20260504195828 | 30 | 315 | 3.2 | 8.0 | 0.00 | 0.00 | 0.00 | 53 | 1016.2 |
| 20260504195323 | 28 | 255 | 3.2 | 3.2 | 0.00 | 0.00 | 0.00 | 53 | 1016.5 |
| 20260504194820 | 27 | 316 | 1.6 | 4.8 | 0.00 | 0.00 | 0.00 | 56 | 1016.5 |
| 20260504194316 | 28 | 148 | 4.8 | 4.8 | 0.00 | 0.00 | 0.00 | 54 | 1016.5 |
| 20260504193812 | 28 | 170 | 8.0 | 11.3 | 0.00 | 0.00 | 0.00 | 54 | 1016.4 |
| 20260504193310 | 27 | 215 | 3.2 | 11.3 | 0.00 | 0.00 | 0.00 | 55 | 1016.7 |
| 20260504192808 | 27 | 263 | 4.8 | 12.9 | 0.00 | 0.00 | 0.00 | 57 | 1016.6 |
| 20260504192306 | 27 | 270 | 1.6 | 9.7 | 0.00 | 0.00 | 0.00 | 57 | 1017.1 |
| 20260504191805 | 28 | 242 | 0.0 | 1.6 | 0.00 | 0.00 | 0.00 | 53 | 1016.9 |
| 20260504191302 | 27 | 303 | 1.6 | 3.2 | 0.00 | 0.00 | 0.00 | 56 | 1017.2 |
| 20260504190757 | 27 | 203 | 1.6 | 3.2 | 0.00 | 0.00 | 0.00 | 56 | 1017.0 |
| 20260504190253 | 27 | 175 | 1.6 | 9.7 | 0.00 | 0.00 | 0.00 | 56 | 1017.1 |
| 20260504185750 | 26 | 249 | 4.8 | 9.7 | 0.00 | 0.00 | 0.00 | 56 | 1017.2 |
| 20260504185247 | 27 | 82 | 6.4 | 8.0 | 0.00 | 0.00 | 0.00 | 58 | 1017.2 |
| 20260504184743 | 26 | 313 | 0.0 | 16.1 | 0.00 | 0.00 | 0.00 | 58 | 1017.1 |
| 20260504184239 | 27 | 234 | 3.2 | 3.2 | 0.00 | 0.00 | 0.00 | 57 | 1017.4 |
| 20260504183735 | 27 | 273 | 6.4 | 9.7 | 0.00 | 0.00 | 0.00 | 55 | 1017.4 |
| 20260504183232 | 28 | 263 | 3.2 | 8.0 | 0.00 | 0.00 | 0.00 | 54 | 1017.4 |
| 20260504182730 | 28 | 279 | 1.6 | 9.7 | 0.00 | 0.00 | 0.00 | 54 | 1017.2 |
| 20260504182227 | 27 | 202 | 3.2 | 3.2 | 0.00 | 0.00 | 0.00 | 56 | 1017.2 |
| 20260504181724 | 27 | 277 | 1.6 | 4.8 | 0.00 | 0.00 | 0.00 | 57 | 1017.3 |
| 20260504181222 | 27 | 168 | 6.4 | 9.7 | 0.00 | 0.00 | 0.00 | 55 | 1017.6 |
| 20260504180721 | 27 | 332 | 4.8 | 8.0 | 0.00 | 0.00 | 0.00 | 55 | 1017.7 |
| 20260504180219 | 26 | 152 | 0.0 | 4.8 | 0.00 | 0.00 | 0.00 | 58 | 1017.5 |
| 20260504175716 | 26 | 286 | 3.2 | 8.0 | 0.00 | 0.00 | 0.00 | 58 | 1017.9 |
| 20260504175213 | 26 | 294 | 1.6 | 4.8 | 0.00 | 0.00 | 0.00 | 58 | 1017.9 |
| 20260504174711 | 26 | 150 | 3.2 | 11.3 | 0.00 | 0.00 | 0.00 | 59 | 1017.9 |
| 20260504174209 | 26 | 266 | 3.2 | 8.0 | 0.00 | 0.00 | 0.00 | 57 | 1018.0 |
| 20260504173705 | 26 | 300 | 1.6 | 8.0 | 0.00 | 0.00 | 0.00 | 59 | 1017.9 |
| 20260504173202 | 26 | 43 | 3.2 | 11.3 | 0.00 | 0.00 | 0.00 | 59 | 1018.1 |
| 20260504172658 | 26 | 196 | 1.6 | 3.2 | 0.00 | 0.00 | 0.00 | 59 | 1018.2 |
| 20260504172155 | 27 | 350 | 3.2 | 4.8 | 0.00 | 0.00 | 0.00 | 58 | 1018.2 |